Weather in Tsvetochny

Russia / Republic of Adygea     44°29′36″N   40°08′23″E
temp.,
°C
wind,
m/s
gust,
m/s
humid.,
%
clouds,
%
prec.,
mm/h
press.,
hPa
HPBL,
m
15 may, sat
sat1500:00+17ssw229034 0.1 101227
03:00+15sse22735 0.1 101216
06:00+15w12800 0.0 101453
09:00+22wnw11545 0.0 1014519
12:00+25nnw32494 0.0 10141082
15:00+25nne335228 0.0 10131223
18:00+23e36695 0.0 1013654
21:00+17e27930 0.0 1012137
16 may, sun
sun1600:00+15s22950 0.0 101119
03:00+14s21961 0.3 101119
06:00+15se129145 0.0 101038
09:00+23ene2560100 0.0 1008521
12:00+26ene4558100 0.0 10071057
15:00+27e4553100 0.0 10051346
18:00+26ene476996 0.0 1003763
21:00+20ese269097 0.0 1003128
17 may, mon
mon1700:00+18ssw22866 0.0 100328
03:00+18s227182 0.0 100324
06:00+18sw117779 0.0 100424
09:00+22nw346499 0.0 1006576
12:00+24n2259100 0.0 1007945
15:00+24ne446199 0.0 10081311
18:00+17nnw369598 4.3 1010435
21:00+15sw2498100 9.3 1012166
18 may, tue
tue1800:00+14sw1399100 15.9 1011144
03:00+14s2399100 24.5 1011147
06:00+14s1198100 4.2 101235
09:00+18nw228735 4.8 1013496
12:00+21nnw246062 1.1 10121440
15:00+19n248297 2.2 1013223
18:00+18ese129016 0.9 101391
21:00+14sse11940 1.0 101410
19 may, wed
wed1900:00+13sse22955 0.0 101337
03:00+12sse22935 0.0 101329
06:00+12sse22885 0.0 101440
09:00+19ene126813 0.0 1014297
12:00+25nne22465 0.0 10131363
15:00+25ne33485 0.0 10121667
18:00+22ene257326 0.1 1012277
21:00+17ene01945 0.4 101211